User: anonymous   Login
Location: Unspecified
(0.0000°N, 0.0000°E)
Time: 05:00:50
(UTC+01:00)
Language:

YAOGAN 1 - Orbit

View from above orbital plane
View from above orbital plane
View from above satellite
View from above satellite

Ground track
Ground track

The orbit data is extracted from the following two-line orbital elements,

1 29092U 06015A   14351.47076017  .00001087  00000-0  14335-3 0  2437
2 29092 097.9889 346.4814 0001420 102.8657 057.4421 14.82102385467138
Epoch (UTC): 17 December 2014 11:17:53
Eccentricity: 0.0001420
inclination: 97.9889°
perigee height: 622 km
apogee height: 623 km
right ascension of ascending node: 346.4814°
argument of perigee: 102.8657°
revolutions per day: 14.82102385
mean anomaly at epoch: 57.4421°
orbit number at epoch: 46713

The dashed part of the orbit path shows where the satellite is in the earth's shadow,  

DLR